| time (UTC) | temp F | wind direction | speed MPH | gust MPH | rain 1hr in | rain 24hr in | rain mn in | humidity % | barometer mb |
| 20260510154141 | 58 | 352 | 0.0 | 4.0 | 0.00 | 0.01 | 0.00 | 34 | |
| 20260510153638 | 58 | 350 | 2.0 | 4.0 | 0.00 | 0.01 | 0.00 | 31 | |
| 20260510153126 | 58 | 359 | 0.0 | 4.0 | 0.00 | 0.01 | 0.00 | 32 | |
| 20260510152626 | 57 | 340 | 1.0 | 3.0 | 0.00 | 0.01 | 0.00 | 30 | |
| 20260510152128 | 56 | 266 | 1.0 | 6.0 | 0.00 | 0.01 | 0.00 | 28 | |
| 20260510151614 | 56 | 338 | 1.0 | 6.0 | 0.00 | 0.01 | 0.00 | 33 | |
| 20260510151114 | 56 | 341 | 1.0 | 4.0 | 0.00 | 0.01 | 0.00 | 32 | |
| 20260510150614 | 56 | 343 | 2.0 | 4.0 | 0.00 | 0.01 | 0.00 | 31 | |
| 20260510150104 | 56 | 357 | 2.0 | 3.0 | 0.00 | 0.01 | 0.00 | 30 | |
| 20260510145602 | 57 | 29 | 2.0 | 3.0 | 0.00 | 0.01 | 0.00 | 31 | |
| 20260510145101 | 56 | 34 | 1.0 | 3.0 | 0.00 | 0.01 | 0.00 | 35 | |
| 20260510144550 | 56 | 44 | 3.0 | 4.0 | 0.00 | 0.01 | 0.00 | 32 | |
| 20260510144311 | 56 | 343 | 4.0 | 4.0 | 0.00 | 0.01 | 0.00 | 31 | |
| 20260510143525 | 55 | 354 | 0.0 | 3.0 | 0.00 | 0.01 | 0.00 | 36 | |
| 20260510143028 | 55 | 7 | 2.0 | 3.0 | 0.00 | 0.01 | 0.00 | 36 | |
| 20260510142526 | 55 | 39 | 2.0 | 3.0 | 0.00 | 0.01 | 0.00 | 35 | |
| 20260510142013 | 55 | 312 | 1.0 | 4.0 | 0.00 | 0.01 | 0.00 | 34 | |
| 20260510141514 | 54 | 340 | 0.0 | 4.0 | 0.00 | 0.01 | 0.00 | 38 | |
| 20260510141017 | 55 | 276 | 3.0 | 3.0 | 0.00 | 0.01 | 0.00 | 39 | |
| 20260510140502 | 54 | 352 | 1.0 | 2.0 | 0.00 | 0.01 | 0.00 | 38 | |
| 20260510140002 | 54 | 222 | 2.0 | 3.0 | 0.00 | 0.01 | 0.00 | 42 | |
| 20260510135502 | 53 | 275 | 2.0 | 2.0 | 0.00 | 0.01 | 0.00 | 40 | |
| 20260510134950 | 54 | 322 | 1.0 | 2.0 | 0.00 | 0.01 | 0.00 | 40 | |
| 20260510134450 | 53 | 47 | 1.0 | 4.0 | 0.00 | 0.01 | 0.00 | 41 | |
| 20260510133949 | 53 | 114 | 2.0 | 4.0 | 0.00 | 0.01 | 0.00 | 44 | |
| 20260510133441 | 52 | 254 | 2.0 | 3.0 | 0.00 | 0.01 | 0.00 | 48 | |
| 20260510132938 | 53 | 34 | 2.0 | 3.0 | 0.00 | 0.01 | 0.00 | 41 | |
| 20260510132438 | 53 | 346 | 1.0 | 2.0 | 0.00 | 0.01 | 0.00 | 41 | |
| 20260510131928 | 53 | 354 | 0.0 | 2.0 | 0.00 | 0.01 | 0.00 | 42 | |
| 20260510131426 | 52 | 331 | 0.0 | 2.0 | 0.00 | 0.01 | 0.00 | 43 | |
| 20260510130926 | 52 | 27 | 1.0 | 2.0 | 0.00 | 0.01 | 0.00 | 44 | |
| 20260510130417 | 51 | 28 | 1.0 | 2.0 | 0.00 | 0.01 | 0.00 | 48 | |
| 20260510125914 | 51 | 68 | 0.0 | 2.0 | 0.00 | 0.01 | 0.00 | 47 | |
| 20260510125414 | 50 | 343 | 0.0 | 3.0 | 0.00 | 0.01 | 0.00 | 45 | |
| 20260510124901 | 50 | 53 | 1.0 | 3.0 | 0.00 | 0.01 | 0.00 | 49 | |
| 20260510124404 | 49 | 16 | 0.0 | 2.0 | 0.00 | 0.01 | 0.00 | 46 | |
| 20260510123902 | 50 | 71 | 0.0 | 2.0 | 0.00 | 0.01 | 0.00 | 50 | |
| 20260510123349 | 50 | 64 | 1.0 | 2.0 | 0.00 | 0.01 | 0.00 | 47 | |
| 20260510122852 | 49 | 48 | 1.0 | 1.0 | 0.00 | 0.01 | 0.00 | 48 | |
| 20260510122349 | 49 | 11 | 1.0 | 2.0 | 0.00 | 0.01 | 0.00 | 51 | |
| 20260510121838 | 49 | 19 | 0.0 | 2.0 | 0.00 | 0.01 | 0.00 | 52 | |
| 20260510121340 | 48 | 24 | 1.0 | 3.0 | 0.00 | 0.01 | 0.00 | 52 | |
| 20260510120838 | 47 | 334 | 1.0 | 3.0 | 0.00 | 0.01 | 0.00 | 55 | |
| 20260510120326 | 47 | 11 | 1.0 | 2.0 | 0.00 | 0.01 | 0.00 | 55 | |
| 20260510115826 | 47 | 341 | 1.0 | 1.0 | 0.00 | 0.01 | 0.00 | 58 | |
| 20260510115326 | 46 | 343 | 1.0 | 1.0 | 0.00 | 0.01 | 0.00 | 59 | |
| 20260510114817 | 45 | 347 | 1.0 | 1.0 | 0.00 | 0.01 | 0.00 | 61 | |
| 20260510114314 | 45 | 24 | 1.0 | 1.0 | 0.00 | 0.01 | 0.00 | 60 | |
| 20260510113814 | 44 | 357 | 0.0 | 1.0 | 0.00 | 0.01 | 0.00 | 61 | |
| 20260510113304 | 44 | 3 | 0.0 | 1.0 | 0.00 | 0.01 | 0.00 | 63 | |
| 20260510112802 | 44 | 359 | 0.0 | 2.0 | 0.00 | 0.01 | 0.00 | 63 | |
| 20260510112305 | 43 | 27 | 0.0 | 2.0 | 0.00 | 0.01 | 0.00 | 65 | |
| 20260510111750 | 43 | 358 | 1.0 | 1.0 | 0.00 | 0.01 | 0.00 | 65 | |
| 20260510111253 | 43 | 314 | 0.0 | 1.0 | 0.00 | 0.01 | 0.00 | 68 | |
| 20260510110949 | 42 | 316 | 0.0 | 1.0 | 0.00 | 0.01 | 0.00 | 71 | |
| 20260510110226 | 40 | 317 | 0.0 | 1.0 | 0.00 | 0.01 | 0.00 | 78 | |
| 20260510105729 | 38 | 301 | 0.0 | 1.0 | 0.00 | 0.01 | 0.00 | 84 | |
| 20260510105425 | 37 | 235 | 0.0 | 0.0 | 0.00 | 0.01 | 0.00 | 87 | |
| 20260510104638 | 37 | 235 | 0.0 | 0.0 | 0.00 | 0.01 | 0.00 | 88 | |
| 20260510104140 | 37 | 235 | 0.0 | 0.0 | 0.00 | 0.01 | 0.00 | 87 | |
| 20260510103856 | 37 | 235 | 0.0 | 0.0 | 0.00 | 0.01 | 0.00 | 87 | |
| 20260510103126 | 37 | 235 | 0.0 | 0.0 | 0.00 | 0.01 | 0.00 | 86 | |
| 20260510102654 | 38 | 235 | 0.0 | 0.0 | 0.00 | 0.01 | 0.00 | 86 | |
| 20260510102126 | 38 | 235 | 0.0 | 0.0 | 0.00 | 0.01 | 0.00 | 87 | |
| 20260510101606 | 38 | 235 | 0.0 | 0.0 | 0.00 | 0.01 | 0.00 | 87 | |
| 20260510101026 | 39 | 235 | 0.0 | 0.0 | 0.00 | 0.01 | 0.00 | 87 | |
| 20260510100943 | 38 | 234 | 0.0 | 0.0 | 0.00 | 0.01 | 0.00 | 85 | |
| 20260510095950 | 38 | 234 | 0.0 | 0.0 | 0.00 | 0.01 | 0.00 | 84 | |
| 20260510095425 | 38 | 234 | 0.0 | 0.0 | 0.00 | 0.01 | 0.00 | 83 | |
| 20260510094926 | 38 | 234 | 0.0 | 0.0 | 0.00 | 0.01 | 0.00 | 83 | |
| 20260510094414 | 38 | 234 | 0.0 | 0.0 | 0.00 | 0.01 | 0.00 | 83 | |
| 20260510093913 | 38 | 234 | 0.0 | 0.0 | 0.00 | 0.01 | 0.00 | 83 | |
| 20260510093353 | 38 | 234 | 0.0 | 0.0 | 0.00 | 0.01 | 0.00 | 83 | |
| 20260510092850 | 39 | 261 | 0.0 | 0.0 | 0.00 | 0.01 | 0.00 | 83 | |
| 20260510092314 | 39 | 261 | 0.0 | 0.0 | 0.00 | 0.01 | 0.00 | 83 | |
| 20260510091750 | 39 | 261 | 0.0 | 0.0 | 0.00 | 0.01 | 0.00 | 83 | |
| 20260510091253 | 40 | 261 | 0.0 | 0.0 | 0.00 | 0.01 | 0.00 | 82 | |
| 20260510090716 | 40 | 261 | 0.0 | 0.0 | 0.00 | 0.01 | 0.00 | 82 | |
| 20260510090149 | 40 | 261 | 0.0 | 0.0 | 0.00 | 0.01 | 0.00 | 80 | |
| 20260510085911 | 40 | 261 | 0.0 | 0.0 | 0.00 | 0.01 | 0.00 | 79 | |
| 20260510085150 | 40 | 261 | 0.0 | 0.0 | 0.00 | 0.01 | 0.00 | 79 | |
| 20260510084629 | 40 | 261 | 0.0 | 0.0 | 0.00 | 0.01 | 0.00 | 78 | |
| 20260510084050 | 41 | 261 | 0.0 | 0.0 | 0.00 | 0.01 | 0.00 | 78 | |
| 20260510083514 | 41 | 261 | 0.0 | 1.0 | 0.00 | 0.01 | 0.00 | 76 | |
| 20260510083013 | 42 | 261 | 0.0 | 1.0 | 0.00 | 0.01 | 0.00 | 75 | |
| 20260510082502 | 42 | 270 | 1.0 | 1.0 | 0.00 | 0.01 | 0.00 | 74 | |
| 20260510082002 | 42 | 1 | 0.0 | 0.0 | 0.00 | 0.01 | 0.00 | 74 | |
| 20260510081735 | 43 | 3 | 0.0 | 0.0 | 0.00 | 0.01 | 0.00 | 72 | |
| 20260510081204 | 43 | 3 | 0.0 | 0.0 | 0.00 | 0.01 | 0.00 | 71 | |
| 20260510080625 | 44 | 3 | 0.0 | 0.0 | 0.00 | 0.01 | 0.00 | 71 | |
| 20260510075826 | 44 | 3 | 0.0 | 0.0 | 0.00 | 0.01 | 0.00 | 71 | |
| 20260510075252 | 44 | 3 | 0.0 | 0.0 | 0.00 | 0.01 | 0.00 | 71 | |
| 20260510074714 | 44 | 3 | 0.0 | 0.0 | 0.00 | 0.01 | 0.00 | 70 | |
| 20260510074205 | 45 | 3 | 0.0 | 0.0 | 0.00 | 0.01 | 0.00 | 69 | |
| 20260510073650 | 45 | 3 | 0.0 | 1.0 | 0.00 | 0.01 | 0.00 | 69 | |
| 20260510073152 | 45 | 3 | 0.0 | 1.0 | 0.00 | 0.01 | 0.00 | 68 | |
| 20260510072626 | 46 | 2 | 0.0 | 1.0 | 0.00 | 0.01 | 0.00 | 66 | |
| 20260510072322 | 46 | 1 | 0.0 | 1.0 | 0.00 | 0.01 | 0.00 | 66 | |
| 20260510071605 | 46 | 9 | 0.0 | 1.0 | 0.00 | 0.01 | 0.00 | 67 | |
| 20260510071559 | 45 | 10 | 0.0 | 1.0 | 0.00 | 0.01 | 0.00 | 67 | |
| 20260510070541 | 46 | 10 | 0.0 | 0.0 | 0.00 | 0.01 | 0.00 | 65 | |
| 20260510070037 | 47 | 9 | 0.0 | 2.0 | 0.00 | 0.01 | 0.00 | 63 | |
| 20260510065526 | 47 | 10 | 0.0 | 2.0 | 0.00 | 0.01 | 0.00 | 61 | |
| 20260510065026 | 47 | 23 | 1.0 | 2.0 | 0.00 | 0.01 | 0.00 | 61 | |
| 20260510064526 | 48 | 24 | 1.0 | 1.0 | 0.00 | 0.01 | 0.00 | 60 | |
| 20260510064014 | 47 | 0 | 0.0 | 1.0 | 0.00 | 0.01 | 0.00 | 64 | |
| 20260510063514 | 46 | 351 | 0.0 | 1.0 | 0.00 | 0.01 | 0.00 | 63 | |
| 20260510063014 | 46 | 351 | 0.0 | 1.0 | 0.00 | 0.01 | 0.00 | 68 | |
| 20260510062453 | 45 | 339 | 0.0 | 0.0 | 0.00 | 0.01 | 0.00 | 72 | |
| 20260510062127 | 45 | 339 | 0.0 | 0.0 | 0.00 | 0.01 | 0.00 | 71 | |
| 20260510060926 | 46 | 339 | 0.0 | 0.0 | 0.00 | 0.01 | 0.00 | 69 | |
| 20260510060425 | 46 | 339 | 0.0 | 0.0 | 0.00 | 0.01 | 0.00 | 69 | |
| 20260510055916 | 47 | 339 | 0.0 | 1.0 | 0.00 | 0.01 | 0.00 | 68 | |
| 20260510055546 | 48 | 339 | 0.0 | 1.0 | 0.00 | 0.01 | 0.00 | 66 | |
| 20260510054317 | 49 | 3 | 0.0 | 0.0 | 0.00 | 0.01 | 0.00 | 62 | |
| 20260510054313 | 50 | 3 | 0.0 | 1.0 | 0.00 | 0.01 | 0.00 | 60 | |
| 20260510053250 | 50 | 3 | 0.0 | 1.0 | 0.00 | 0.01 | 0.00 | 58 | |
| 20260510052749 | 50 | 17 | 0.0 | 1.0 | 0.00 | 0.01 | 0.00 | 58 | |
| 20260510052238 | 51 | 17 | 0.0 | 1.0 | 0.00 | 0.01 | 0.00 | 57 | |
| 20260510051741 | 51 | 1 | 0.0 | 1.0 | 0.00 | 0.01 | 0.00 | 57 | |
| 20260510051457 | 52 | 6 | 0.0 | 2.0 | 0.00 | 0.01 | 0.00 | 56 | |
| 20260510050738 | 52 | 21 | 1.0 | 2.0 | 0.00 | 0.01 | 0.00 | 56 | |
| 20260510050226 | 52 | 4 | 0.0 | 3.0 | 0.00 | 0.01 | 0.00 | 56 | |
| 20260510045725 | 52 | 359 | 1.0 | 3.0 | 0.00 | 0.01 | 0.00 | 56 | |
| 20260510045215 | 52 | 13 | 1.0 | 2.0 | 0.00 | 0.01 | 0.00 | 56 | |
| 20260510044714 | 53 | 14 | 1.0 | 2.0 | 0.00 | 0.01 | 0.00 | 56 | |
| 20260510044217 | 53 | 21 | 1.0 | 2.0 | 0.00 | 0.01 | 0.00 | 55 | |
| 20260510043714 | 53 | 19 | 1.0 | 2.0 | 0.00 | 0.01 | 0.00 | 56 | |
| 20260510043202 | 53 | 6 | 1.0 | 2.0 | 0.00 | 0.01 | 0.00 | 55 | |
| 20260510042702 | 53 | 358 | 1.0 | 2.0 | 0.00 | 0.01 | 0.00 | 56 | |
| 20260510042204 | 53 | 356 | 1.0 | 2.0 | 0.00 | 0.01 | 0.00 | 55 | |
| 20260510041908 | 53 | 7 | 1.0 | 2.0 | 0.00 | 0.01 | 0.00 | 55 | |
| 20260510041149 | 54 | 24 | 1.0 | 3.0 | 0.00 | 0.01 | 0.00 | 56 | |
| 20260510040653 | 54 | 9 | 1.0 | 3.0 | 0.00 | 0.01 | 0.00 | 55 | |
| 20260510040150 | 54 | 353 | 1.0 | 3.0 | 0.00 | 0.01 | 0.00 | 55 | |
| 20260510035650 | 54 | 345 | 1.0 | 2.0 | 0.00 | 0.01 | 0.01 | 54 | |
| 20260510035150 | 55 | 9 | 1.0 | 6.0 | 0.00 | 0.01 | 0.01 | 54 | |
| 20260510034650 | 55 | 357 | 2.0 | 6.0 | 0.00 | 0.01 | 0.01 | 54 | |
| 20260510034140 | 55 | 349 | 1.0 | 6.0 | 0.00 | 0.01 | 0.01 | 53 | |
| 20260510033628 | 55 | 14 | 1.0 | 6.0 | 0.00 | 0.01 | 0.01 | 54 | |
| 20260510033114 | 56 | 340 | 1.0 | 6.0 | 0.00 | 0.01 | 0.01 | 53 | |
| 20260510032614 | 56 | 357 | 1.0 | 6.0 | 0.00 | 0.01 | 0.01 | 53 | |
| 20260510032114 | 57 | 2 | 2.0 | 4.0 | 0.00 | 0.01 | 0.01 | 52 | |
| 20260510031604 | 57 | 341 | 1.0 | 4.0 | 0.00 | 0.01 | 0.01 | 50 | |
| 20260510031102 | 59 | 25 | 1.0 | 4.0 | 0.00 | 0.01 | 0.01 | 44 | |
| 20260510030602 | 59 | 3 | 1.0 | 4.0 | 0.00 | 0.01 | 0.01 | 43 | |
| 20260510030051 | 60 | 356 | 1.0 | 4.0 | 0.00 | 0.01 | 0.01 | 42 | |
| 20260510025550 | 60 | 359 | 1.0 | 2.0 | 0.00 | 0.01 | 0.01 | 42 | |
| 20260510025050 | 60 | 26 | 1.0 | 2.0 | 0.00 | 0.01 | 0.01 | 42 | |
| 20260510024806 | 60 | 11 | 1.0 | 2.0 | 0.00 | 0.01 | 0.01 | 43 | |
| 20260510024040 | 60 | 318 | 0.0 | 3.0 | 0.00 | 0.01 | 0.01 | 42 | |
| 20260510023537 | 60 | 357 | 1.0 | 3.0 | 0.00 | 0.01 | 0.01 | 42 | |
| 20260510023026 | 60 | 346 | 1.0 | 4.0 | 0.00 | 0.01 | 0.01 | 42 | |
| 20260510022526 | 60 | 356 | 1.0 | 4.0 | 0.00 | 0.01 | 0.01 | 42 | |
| 20260510022028 | 60 | 345 | 1.0 | 3.0 | 0.00 | 0.01 | 0.01 | 41 | |
| 20260510021514 | 61 | 351 | 2.0 | 4.0 | 0.00 | 0.01 | 0.01 | 42 | |
| 20260510021237 | 61 | 348 | 2.0 | 4.0 | 0.00 | 0.01 | 0.01 | 42 | |
| 20260510020514 | 62 | 324 | 2.0 | 3.0 | 0.00 | 0.01 | 0.01 | 43 | |
| 20260510020005 | 62 | 336 | 1.0 | 2.0 | 0.00 | 0.01 | 0.01 | 44 | |
| 20260510015502 | 62 | 350 | 1.0 | 2.0 | 0.00 | 0.01 | 0.01 | 46 | |
| 20260510015002 | 61 | 347 | 1.0 | 2.0 | 0.00 | 0.01 | 0.01 | 47 | |
| 20260510014450 | 60 | 356 | 0.0 | 1.0 | 0.00 | 0.01 | 0.01 | 50 | |
| 20260510013952 | 58 | 282 | 0.0 | 1.0 | 0.00 | 0.01 | 0.01 | 60 | |
| 20260510013450 | 58 | 275 | 1.0 | 1.0 | 0.00 | 0.01 | 0.01 | 58 | |
| 20260510012941 | 59 | 284 | 0.0 | 1.0 | 0.00 | 0.01 | 0.01 | 56 | |
| 20260510012426 | 59 | 284 | 0.0 | 1.0 | 0.00 | 0.01 | 0.01 | 54 | |
| 20260510011917 | 59 | 302 | 0.0 | 1.0 | 0.00 | 0.01 | 0.01 | 53 | |
| 20260510011402 | 60 | 334 | 0.0 | 1.0 | 0.00 | 0.01 | 0.01 | 52 | |
| 20260510011335 | 60 | 352 | 0.0 | 0.0 | 0.00 | 0.01 | 0.01 | 50 | |
| 20260510010341 | 61 | 352 | 0.0 | 1.0 | 0.00 | 0.01 | 0.01 | 49 | |
| 20260510005826 | 62 | 352 | 0.0 | 1.0 | 0.00 | 0.01 | 0.01 | 49 | |
| 20260510005326 | 62 | 353 | 0.0 | 3.0 | 0.00 | 0.01 | 0.01 | 46 | |
| 20260510005049 | 64 | 353 | 0.0 | 3.0 | 0.00 | 0.01 | 0.01 | 43 | |
| 20260510004746 | 63 | 323 | 1.0 | 1.0 | 0.00 | 0.01 | 0.01 | 44 | |
| 20260510003802 | 62 | 0 | 0.0 | 1.0 | 0.00 | 0.01 | 0.01 | 46 | |
| 20260510003237 | 63 | 323 | 0.0 | 2.0 | 0.00 | 0.01 | 0.01 | 45 | |
| 20260510002737 | 63 | 77 | 1.0 | 6.0 | 0.00 | 0.01 | 0.01 | 43 | |
| 20260510002226 | 64 | 344 | 1.0 | 6.0 | 0.00 | 0.01 | 0.01 | 42 | |
| 20260510001726 | 64 | 251 | 0.0 | 3.0 | 0.00 | 0.01 | 0.01 | 42 | |
| 20260510001449 | 65 | 276 | 0.0 | 3.0 | 0.00 | 0.01 | 0.01 | 40 | |
| 20260510000714 | 65 | 294 | 1.0 | 7.0 | 0.00 | 0.01 | 0.01 | 39 | |
| 20260510000214 | 65 | 202 | 2.0 | 3.0 | 0.00 | 0.01 | 0.01 | 40 | |
| 20260509235714 | 65 | 238 | 0.0 | 7.0 | 0.00 | 0.01 | 0.01 | 39 | |
| 20260509235204 | 66 | 279 | 0.0 | 7.0 | 0.00 | 0.01 | 0.01 | 38 | |
| 20260509234702 | 66 | 247 | 2.0 | 14.0 | 0.00 | 0.01 | 0.01 | 38 | |
| 20260509234202 | 66 | 315 | 2.0 | 14.0 | 0.00 | 0.01 | 0.01 | 37 | |
| 20260509233652 | 66 | 290 | 4.0 | 9.0 | 0.00 | 0.01 | 0.01 | 37 | |
| 20260509233636 | 66 | 262 | 2.0 | 10.0 | 0.00 | 0.01 | 0.01 | 37 | |
| 20260509232650 | 66 | 289 | 4.0 | 10.0 | 0.00 | 0.01 | 0.01 | 37 | |
| 20260509232137 | 67 | 10 | 1.0 | 11.0 | 0.00 | 0.01 | 0.01 | 37 | |
| 20260509231640 | 67 | 13 | 2.0 | 11.0 | 0.00 | 0.01 | 0.01 | 35 | |
| 20260509231138 | 67 | 306 | 3.0 | 22.0 | 0.00 | 0.01 | 0.01 | 34 | |
| 20260509230626 | 67 | 324 | 3.0 | 22.0 | 0.00 | 0.01 | 0.01 | 35 | |
| 20260509230126 | 68 | 32 | 3.0 | 14.0 | 0.00 | 0.01 | 0.01 | 33 | |
| 20260509225629 | 68 | 330 | 2.0 | 14.0 | 0.00 | 0.01 | 0.01 | 33 | |
| 20260509225113 | 68 | 338 | 3.0 | 22.0 | 0.00 | 0.01 | 0.01 | 32 | |
| 20260509224614 | 69 | 263 | 7.0 | 22.0 | 0.00 | 0.01 | 0.01 | 31 | |
| 20260509224114 | 69 | 339 | 4.0 | 18.0 | 0.00 | 0.01 | 0.01 | 32 | |
| 20260509223604 | 69 | 244 | 7.0 | 13.0 | 0.00 | 0.01 | 0.01 | 30 | |
| 20260509223102 | 69 | 236 | 5.0 | 13.0 | 0.00 | 0.01 | 0.01 | 32 | |
| 20260509222602 | 70 | 331 | 5.0 | 13.0 | 0.00 | 0.01 | 0.01 | 31 | |
| 20260509222050 | 71 | 303 | 9.0 | 13.0 | 0.00 | 0.01 | 0.01 | 33 | |
| 20260509221549 | 70 | 334 | 4.0 | 13.0 | 0.00 | 0.01 | 0.01 | 33 | |
| 20260509221053 | 69 | 332 | 1.0 | 10.0 | 0.00 | 0.01 | 0.01 | 36 | |
| 20260509220537 | 69 | 20 | 3.0 | 16.0 | 0.00 | 0.01 | 0.01 | 36 | |
| 20260509220038 | 68 | 295 | 6.0 | 16.0 | 0.00 | 0.01 | 0.01 | 35 | |
| 20260509215537 | 69 | 232 | 2.0 | 14.0 | 0.00 | 0.01 | 0.01 | 34 | |
| 20260509215016 | 69 | 269 | 11.0 | 21.0 | 0.00 | 0.01 | 0.01 | 33 | |
| 20260509214514 | 69 | 325 | 3.0 | 21.0 | 0.00 | 0.01 | 0.01 | 32 | |
| 20260509214224 | 70 | 275 | 4.0 | 19.0 | 0.00 | 0.01 | 0.01 | 31 | |
| 20260509213502 | 70 | 262 | 6.0 | 16.0 | 0.00 | 0.01 | 0.01 | 31 | |
| 20260509213005 | 70 | 280 | 9.0 | 22.0 | 0.00 | 0.01 | 0.01 | 31 | |
| 20260509212437 | 69 | 282 | 17.0 | 22.0 | 0.00 | 0.01 | 0.01 | 31 | |
| 20260509211938 | 70 | 303 | 3.0 | 13.0 | 0.00 | 0.01 | 0.01 | 34 | |
| 20260509211919 | 70 | 272 | 2.0 | 10.0 | 0.00 | 0.01 | 0.01 | 34 | |
| 20260509210929 | 69 | 354 | 4.0 | 9.0 | 0.00 | 0.01 | 0.01 | 34 | |
| 20260509210426 | 69 | 278 | 4.0 | 9.0 | 0.00 | 0.01 | 0.01 | 33 | |
| 20260509205914 | 70 | 308 | 5.0 | 9.0 | 0.00 | 0.01 | 0.01 | 35 | |
| 20260509205413 | 69 | 305 | 1.0 | 22.0 | 0.00 | 0.01 | 0.01 | 36 | |
| 20260509204916 | 68 | 336 | 2.0 | 22.0 | 0.00 | 0.01 | 0.01 | 38 | |
| 20260509204402 | 69 | 297 | 10.0 | 14.0 | 0.00 | 0.01 | 0.01 | 37 | |
| 20260509204126 | 69 | 34 | 2.0 | 14.0 | 0.00 | 0.01 | 0.01 | 43 | |
| 20260509203401 | 68 | 221 | 5.0 | 14.0 | 0.00 | 0.01 | 0.01 | 45 | |
| 20260509202853 | 68 | 237 | 2.0 | 9.0 | 0.00 | 0.01 | 0.01 | 48 | |
| 20260509202610 | 69 | 297 | 1.0 | 7.0 | 0.00 | 0.01 | 0.01 | 48 | |
| 20260509201850 | 69 | 234 | 3.0 | 7.0 | 0.00 | 0.01 | 0.01 | 49 | |
| 20260509201338 | 69 | 325 | 1.0 | 8.0 | 0.00 | 0.01 | 0.01 | 51 | |
| 20260509200840 | 68 | 344 | 2.0 | 8.0 | 0.01 | 0.01 | 0.01 | 47 | |
| 20260509200338 | 68 | 50 | 1.0 | 6.0 | 0.01 | 0.01 | 0.01 | 50 | |
| 20260509195826 | 67 | 291 | 1.0 | 4.0 | 0.01 | 0.01 | 0.01 | 54 | |
| 20260509195326 | 66 | 322 | 1.0 | 7.0 | 0.01 | 0.01 | 0.01 | 61 | |
| 20260509194829 | 64 | 289 | 1.0 | 7.0 | 0.01 | 0.01 | 0.01 | 63 | |
| 20260509194313 | 64 | 312 | 1.0 | 4.0 | 0.01 | 0.01 | 0.01 | 65 | |
| 20260509194034 | 64 | 253 | 2.0 | 4.0 | 0.01 | 0.01 | 0.01 | 70 | |
| 20260509193314 | 63 | 64 | 1.0 | 4.0 | 0.01 | 0.01 | 0.01 | 72 | |
| 20260509192804 | 62 | 303 | 1.0 | 4.0 | 0.01 | 0.01 | 0.01 | 75 | |
| 20260509192305 | 59 | 14 | 1.0 | 8.0 | 0.01 | 0.01 | 0.01 | 79 | |
| 20260509191802 | 57 | 334 | 1.0 | 9.0 | 0.01 | 0.01 | 0.01 | 82 | |
| 20260509191252 | 56 | 313 | 1.0 | 9.0 | 0.01 | 0.01 | 0.01 | 81 | |
| 20260509190750 | 57 | 14 | 2.0 | 7.0 | 0.00 | 0.00 | 0.00 | 81 | |
| 20260509190250 | 58 | 341 | 2.0 | 8.0 | 0.00 | 0.00 | 0.00 | 76 | |
| 20260509185741 | 63 | 336 | 2.0 | 10.0 | 0.00 | 0.00 | 0.00 | 62 | |
| 20260509185237 | 67 | 254 | 6.0 | 10.0 | 0.00 | 0.00 | 0.00 | 49 | |
| 20260509184738 | 67 | 296 | 2.0 | 10.0 | 0.00 | 0.00 | 0.00 | 48 | |
| 20260509184228 | 67 | 335 | 6.0 | 10.0 | 0.00 | 0.00 | 0.00 | 47 | |
| 20260509183726 | 67 | 232 | 0.0 | 17.0 | 0.00 | 0.00 | 0.00 | 49 | |
| 20260509183226 | 68 | 292 | 6.0 | 17.0 | 0.00 | 0.00 | 0.00 | 48 | |
| 20260509182714 | 68 | 305 | 2.0 | 16.0 | 0.00 | 0.00 | 0.00 | 47 | |
| 20260509182217 | 68 | 197 | 2.0 | 24.0 | 0.00 | 0.00 | 0.00 | 46 | |
| 20260509181937 | 68 | 268 | 2.0 | 24.0 | 0.00 | 0.00 | 0.00 | 46 | |
| 20260509181202 | 69 | 294 | 4.0 | 17.0 | 0.00 | 0.00 | 0.00 | 47 | |
| 20260509180704 | 68 | 312 | 4.0 | 17.0 | 0.00 | 0.00 | 0.00 | 47 | |
| 20260509180202 | 68 | 288 | 6.0 | 13.0 | 0.00 | 0.00 | 0.00 | 47 | |
| 20260509175650 | 69 | 271 | 5.0 | 16.0 | 0.00 | 0.00 | 0.00 | 48 | |
| 20260509175150 | 69 | 58 | 1.0 | 17.0 | 0.00 | 0.00 | 0.00 | 48 | |
| 20260509174652 | 69 | 258 | 2.0 | 17.0 | 0.00 | 0.00 | 0.00 | 47 | |
| 20260509174138 | 70 | 308 | 1.0 | 17.0 | 0.00 | 0.00 | 0.00 | 48 | |
| 20260509173637 | 69 | 288 | 3.0 | 17.0 | 0.00 | 0.00 | 0.00 | 47 | |
| 20260509173114 | 68 | 302 | 4.0 | 14.0 | 0.00 | 0.00 | 0.00 | 47 | |
| 20260509172614 | 69 | 226 | 4.0 | 10.0 | 0.00 | 0.00 | 0.00 | 47 | |
| 20260509172117 | 69 | 284 | 5.0 | 10.0 | 0.00 | 0.00 | 0.00 | 46 | |
| 20260509171601 | 69 | 162 | 2.0 | 10.0 | 0.00 | 0.00 | 0.00 | 45 | |
| 20260509171102 | 68 | 249 | 5.0 | 15.0 | 0.00 | 0.00 | 0.00 | 47 | |
| 20260509170831 | 67 | 98 | 4.0 | 15.0 | 0.00 | 0.00 | 0.00 | 47 | |
| 20260509170055 | 69 | 209 | 2.0 | 15.0 | 0.00 | 0.00 | 0.00 | 46 | |
| 20260509165812 | 68 | 284 | 7.0 | 17.0 | 0.00 | 0.00 | 0.00 | 47 | |
| 20260509165049 | 67 | 19 | 2.0 | 17.0 | 0.00 | 0.00 | 0.00 | 49 | |
| 20260509164541 | 67 | 277 | 4.0 | 11.0 | 0.00 | 0.00 | 0.00 | 47 | |
| 20260509164038 | 67 | 193 | 6.0 | 9.0 | 0.00 | 0.00 | 0.00 | 48 | |
| 20260509163514 | 67 | 248 | 1.0 | 9.0 | 0.00 | 0.00 | 0.00 | 53 | |
| 20260509163013 | 67 | 307 | 2.0 | 9.0 | 0.00 | 0.00 | 0.00 | 52 | |
| 20260509162735 | 67 | 228 | 2.0 | 8.0 | 0.00 | 0.00 | 0.00 | 51 | |
| 20260509162004 | 67 | 262 | 1.0 | 9.0 | 0.00 | 0.00 | 0.00 | 54 | |
| 20260509161502 | 65 | 254 | 1.0 | 9.0 | 0.00 | 0.00 | 0.00 | 56 | |
| 20260509161002 | 66 | 288 | 3.0 | 8.0 | 0.00 | 0.00 | 0.00 | 54 | |
| 20260509160452 | 69 | 4 | 1.0 | 8.0 | 0.00 | 0.00 | 0.00 | 53 | |
| 20260509155950 | 68 | 325 | 2.0 | 8.0 | 0.00 | 0.00 | 0.00 | 56 | |
| 20260509155450 | 67 | 255 | 2.0 | 7.0 | 0.00 | 0.00 | 0.00 | 55 | |
| 20260509154937 | 66 | 241 | 1.0 | 7.0 | 0.00 | 0.00 | 0.00 | 57 |